^^
Paulen-Weather Station Historical Data
Daily Summary for July 28, 2022 Units:  Metric    English   Both
Daily Weekly Monthly Yearly Custom
  High: Low: Average:
Temperature: 15 °C 12 °C 13.8 °C
Dew Point: 11 °C 10 °C 10.5 °C
Humidity: 87% 76% 81%
Wind Speed: 8km/h 4km/h 6km/h
Wind Gust: 9km/h - -
Wind- - WNW
Pressure: 1014.77 hPa 1013.51 hPa -
Precipitation: 0 mm    
Historical Graphs
 
 
Tabular Data for July 28, 2022
Time Temperature Dew Point Pressure Wind Wind Speed Wind Gust Humidity Rainfall Rate (Hourly) solar
00:04 15 °C 11 °C 1013.55 hPa SW 4 km/h 4 km/h 77% 0 mm 0 W/m2
00:09 15 °C 11 °C 1013.51 hPa SW 6 km/h 5 km/h 77% 0 mm 0 W/m2
00:14 15 °C 11 °C 1013.55 hPa WSW 4 km/h 3 km/h 78% 0 mm 0 W/m2
00:19 15 °C 11 °C 1013.61 hPa SW 4 km/h 3 km/h 78% 0 mm 0 W/m2
00:24 15 °C 11 °C 1013.65 hPa WSW 4 km/h 4 km/h 78% 0 mm 0 W/m2
00:29 15 °C 11 °C 1013.72 hPa SW 6 km/h 5 km/h 78% 0 mm 0 W/m2
00:34 15 °C 11 °C 1013.75 hPa SW 6 km/h 5 km/h 79% 0 mm 0 W/m2
00:39 15 °C 11 °C 1013.75 hPa SW 5 km/h 3 km/h 79% 0 mm 0 W/m2
00:44 15 °C 11 °C 1013.85 hPa SW 4 km/h 4 km/h 79% 0 mm 0 W/m2
00:49 15 °C 11 °C 1013.85 hPa SW 4 km/h 4 km/h 79% 0 mm 0 W/m2
00:54 14 °C 11 °C 1013.95 hPa SW 5 km/h 4 km/h 79% 0 mm 0 W/m2
00:59 14 °C 11 °C 1013.95 hPa WSW 6 km/h 4 km/h 79% 0 mm 0 W/m2
01:04 14 °C 11 °C 1013.95 hPa WSW 6 km/h 6 km/h 78% 0 mm 0 W/m2
01:09 14 °C 11 °C 1013.95 hPa WSW 7 km/h 6 km/h 78% 0 mm 0 W/m2
01:14 14 °C 10 °C 1013.95 hPa WSW 6 km/h 5 km/h 77% 0 mm 0 W/m2
01:19 14 °C 10 °C 1013.99 hPa W 6 km/h 6 km/h 77% 0 mm 0 W/m2
01:24 14 °C 10 °C 1014.05 hPa W 6 km/h 5 km/h 76% 0 mm 0 W/m2
01:29 14 °C 10 °C 1014.09 hPa WNW 5 km/h 4 km/h 76% 0 mm 0 W/m2
01:34 14 °C 10 °C 1014.09 hPa WNW 4 km/h 3 km/h 76% 0 mm 0 W/m2
01:39 14 °C 10 °C 1014.09 hPa NW 6 km/h 4 km/h 76% 0 mm 0 W/m2
01:44 14 °C 10 °C 1014.09 hPa NW 6 km/h 4 km/h 76% 0 mm 0 W/m2
01:49 14 °C 10 °C 1014.12 hPa NW 6 km/h 5 km/h 76% 0 mm 0 W/m2
01:54 14 °C 10 °C 1014.12 hPa NW 6 km/h 5 km/h 77% 0 mm 0 W/m2
01:59 14 °C 10 °C 1014.12 hPa NW 6 km/h 6 km/h 77% 0 mm 0 W/m2
02:04 14 °C 10 °C 1014.16 hPa NW 6 km/h 5 km/h 78% 0 mm 0 W/m2
02:09 14 °C 11 °C 1014.16 hPa NW 6 km/h 5 km/h 79% 0 mm 0 W/m2
02:14 14 °C 10 °C 1014.16 hPa NW 6 km/h 4 km/h 80% 0 mm 0 W/m2
02:19 14 °C 11 °C 1014.16 hPa NW 6 km/h 4 km/h 81% 0 mm 0 W/m2
02:24 14 °C 10 °C 1014.12 hPa NW 6 km/h 4 km/h 81% 0 mm 0 W/m2
02:29 14 °C 10 °C 1014.19 hPa NW 6 km/h 5 km/h 80% 0 mm 0 W/m2
02:34 14 °C 10 °C 1014.22 hPa NW 6 km/h 5 km/h 80% 0 mm 0 W/m2
02:39 14 °C 10 °C 1014.22 hPa NW 6 km/h 5 km/h 80% 0 mm 0 W/m2
02:44 14 °C 10 °C 1014.26 hPa NW 6 km/h 4 km/h 80% 0 mm 0 W/m2
02:49 13 °C 10 °C 1014.29 hPa NW 6 km/h 6 km/h 81% 0 mm 0 W/m2
02:54 13 °C 10 °C 1014.29 hPa NW 6 km/h 6 km/h 81% 0 mm 0 W/m2
02:59 13 °C 10 °C 1014.36 hPa NW 6 km/h 6 km/h 82% 0 mm 0 W/m2
03:04 13 °C 10 °C 1014.43 hPa NW 5 km/h 5 km/h 82% 0 mm 0 W/m2
03:09 13 °C 10 °C 1014.46 hPa NW 4 km/h 4 km/h 82% 0 mm 0 W/m2
03:14 13 °C 10 °C 1014.49 hPa NNW 6 km/h 4 km/h 82% 0 mm 0 W/m2
03:19 13 °C 10 °C 1014.49 hPa NNW 6 km/h 4 km/h 83% 0 mm 0 W/m2
03:24 13 °C 10 °C 1014.46 hPa NW 6 km/h 7 km/h 83% 0 mm 0 W/m2
03:29 13 °C 10 °C 1014.46 hPa NW 8 km/h 7 km/h 84% 0 mm 0 W/m2
03:34 13 °C 10 °C 1014.53 hPa NNW 7 km/h 7 km/h 85% 0 mm 0 W/m2
03:39 13 °C 11 °C 1014.46 hPa NW 8 km/h 7 km/h 86% 0 mm 0 W/m2
03:44 13 °C 11 °C 1014.49 hPa NNW 7 km/h 7 km/h 86% 0 mm 0 W/m2
03:49 13 °C 11 °C 1014.53 hPa NNW 7 km/h 6 km/h 87% 0 mm 0 W/m2
03:54 13 °C 11 °C 1014.56 hPa NNW 8 km/h 8 km/h 87% 0 mm 0 W/m2
03:59 13 °C 11 °C 1014.6 hPa NNW 8 km/h 7 km/h 87% 0 mm 0 W/m2
04:04 13 °C 11 °C 1014.6 hPa NNW 6 km/h 6 km/h 87% 0 mm 0 W/m2
04:09 13 °C 11 °C 1014.63 hPa NW 7 km/h 7 km/h 87% 0 mm 0 W/m2
04:14 13 °C 11 °C 1014.63 hPa NW 7 km/h 7 km/h 87% 0 mm 0 W/m2
04:19 13 °C 11 °C 1014.7 hPa NW 7 km/h 7 km/h 86% 0 mm 0 W/m2
04:24 13 °C 11 °C 1014.7 hPa NW 6 km/h 6 km/h 86% 0 mm 0 W/m2
04:29 13 °C 10 °C 1014.7 hPa NW 7 km/h 9 km/h 85% 0 mm 0 W/m2
04:34 13 °C 10 °C 1014.77 hPa NW 8 km/h 8 km/h 85% 0 mm 0 W/m2
04:39 12 °C 10 °C 1014.77 hPa NNW 8 km/h 7 km/h 85% 0 mm 0 W/m2
Compliments of Weather Underground - 2 mb